This demonstration page uses our WeatherBlox Daily Observations layout. Learn more.

39.92423, -83.80882

Hourly Observations for September 23, 2017

Temp ( °F °C ) Dew Point ( °F °C ) Humidity (%) Winds ( mph kmh ) Pressure ( in mb ) Visibility ( mi km ) Precip ( " mm )
12:56 am 00:56 Clear 65 18.3 63 17.2 93 93 Calm 30.06 1018 10 16.09344 0 0
1:56 am 01:56 Clear 65 18.3 63 17.2 93 93 Calm 30.06 1018 10 16.09344 0 0
2:56 am 02:56 Clear 63 17.2 61 16.1 93 93 E 3 6 30.06 1018 8 12.874752 0 0
3:56 am 03:56 Clear with Mist and Fog 61 16.1 60 15.6 97 97 E 3 6 30.06 1018 5 8.04672 0 0
4:56 am 04:56 Clear with Mist and Fog 62 16.7 61 16.1 96 96 Calm 30.06 1018 6 9.656064 0 0
5:56 am 05:56 Clear 61 16.1 59 15 93 93 Calm 30.06 1018 9 14.484096 0 0
6:56 am 06:56 Clear with Mist and Fog 61 16.1 60 15.6 97 97 Calm 30.09 1019 6 9.656064 0 0
7:56 am 07:56 Sunny with Mist and Fog 61 16.1 60 15.6 97 97 Calm 30.12 1020 4 6.437376 0 0
8:56 am 08:56 Sunny with Mist and Fog 68 20 65 18.3 90 90 Calm 30.12 1020 6 9.656064 0 0
9:56 am 09:56 Sunny 75 23.9 66 18.9 74 74 Calm 30.12 1020 9 14.484096 0 0
10:56 am 10:56 Sunny 81 27.2 67 19.4 62 62 NNE 5 7 30.12 1020 10 16.09344 0 0
11:56 am 11:56 Sunny 83 28.3 65 18.3 55 55 N 3 6 30.12 1020 10 16.09344 0 0
12:56 pm 12:56 Sunny 85 29.4 65 18.3 51 51 N 9 15 30.12 1020 10 16.09344 0 0
1:56 pm 13:56 Sunny 87 30.6 64 17.8 46 46 NNE 8 13 30.09 1019 10 16.09344 0 0
2:56 pm 14:56 Sunny 88 31.1 62 16.7 42 42 NNE 7 11 30.09 1019 10 16.09344 0 0
3:56 pm 15:56 Sunny 89 31.7 62 16.7 41 41 ENE 10 17 30.06 1018 10 16.09344 0 0
4:56 pm 16:56 Sunny 88 31.1 61 16.1 40 40 NE 12 19 30.06 1018 10 16.09344 0 0
5:56 pm 17:56 Sunny 87 30.6 60 15.6 40 40 E 8 13 30.06 1018 10 16.09344 0 0
6:56 pm 18:56 Sunny 82 27.8 61 16.1 49 49 SE 6 9 30.06 1018 10 16.09344 0 0
7:56 pm 19:56 Clear 76 24.4 60 15.6 58 58 SE 7 11 30.09 1019 10 16.09344 0 0
8:56 pm 20:56 Clear 71 21.7 60 15.6 68 68 ESE 3 6 30.09 1019 10 16.09344 0 0
9:56 pm 21:56 Clear 69 20.6 60 15.6 73 73 Calm 30.09 1019 10 16.09344 0 0
10:56 pm 22:56 Clear 67 19.4 60 15.6 79 79 ENE 3 6 30.09 1019 10 16.09344 0 0
11:56 pm 23:56 Clear 65 18.3 60 15.6 84 84 ENE 5 7 30.09 1019 10 16.09344 0 0

Powered by AerisWeather